Regional Weather Roundup
Issued by NWS Spokane, WA

Home | Current Version | Previous Version | Text Only | Print | Product List | Glossary On
Versions: 1 2 3 4 5 6 7 8 9 10 11 12 13 14 15 16 17 18 19 20 21 22 23 24 25 26 27 28 29 30 31 32 33 34 35 36 37 38 39 40 41 42 43 44 45 46 47 48 49 50
000
NZUS01 KOTX 041610
RWROTX
EASTERN WASHINGTON/NORTHERN IDAHO ROUNDUP
NATIONAL WEATHER SERVICE, SPOKANE WA
900 AM PDT TUE AUG 04 2015

Note: "fair" indicated few or no clouds below 12,000 feet with no
significant weather and/or obstructions to visibility.

...NORTHEAST WASHINGTON AND NORTHERN IDAHO PANHANDLE...

CITY           SKY/WX    TMP DP  RH WIND       PRES   REMARKS
SPOKANE INTL   PTSUNNY   72  46  39 S12       29.92S
SPOKANE DOWNTO MOSUNNY   74  46  36 S9        29.92R
COEUR D ALENE  SUNNY     73  46  38 S10       29.93R
DEER PARK      SUNNY     72  47  40 SE10      29.92S
SANDPOINT      SUNNY     73  52  46 CALM      29.91S
BONNERS FERRY  FAIR      70  55  60 S3        29.91F

...SOUTHEAST WASHINGTON AND SOUTHERN IDAHO PANHANDLE...

CITY           SKY/WX    TMP DP  RH WIND       PRES   REMARKS
WALLA WALLA    MOSUNNY   77  44  30 SW15      29.92S
PULLMAN/MOSCOW MOSUNNY   73  45  36 W7        29.98R
LEWISTON       PTSUNNY   77  48  35 N8        29.90F
LOWELL           N/A     70  51  51 CALM      29.96F

...COLUMBIA BASIN...

CITY           SKY/WX    TMP DP  RH WIND       PRES   REMARKS
EPHRATA        SUNNY     78  49  35 S5        29.86S
MOSES LAKE     SUNNY     75  52  44 SW7       29.87S
TRI CITIES     SUNNY     77  51  40 SW5       29.88S
HERMISTON      SUNNY     77  51  40 W17G23    29.89F
PENDLETON      SUNNY     75  42  30 SW5       29.93F

...EAST SLOPES CASCADES...

CITY           SKY/WX    TMP DP  RH WIND       PRES   REMARKS
THE DALLES     SUNNY     71  54  54 N15       29.92F
YAKIMA         SUNNY     76  50  40 CALM      29.90F
ELLENSBURG     MOSUNNY   71  50  47 NW14      29.92S
WENATCHEE      MOSUNNY   76  48  37 NW17      29.88S
OMAK           SUNNY     77  44  30 N9        29.86S

...SOUTHERN BRITISH COLUMBIA...

CITY           SKY/WX    TMP DP  RH WIND       PRES   REMARKS
PENTICTON      PTSUNNY   75  52  43 VRB2      29.87F
CASTLEGAR      MOSUNNY   70  57  64 W2        29.87F
CRANBROOK      MOSUNNY   70  54  56 VRB6      29.94S

...WESTERN MONTANA...

CITY           SKY/WX    TMP DP  RH WIND       PRES   REMARKS
MISSOULA       CLOUDY    69  46  43 CALM      29.99S

...NEIGHBORING CITIES...

CITY           SKY/WX    TMP DP  RH WIND       PRES   REMARKS
SEATTLE        CLOUDY    61  54  77 SW7       30.03R
CALGARY        PTSUNNY   61  54  77 NW16      29.94F



USA.gov is the U.S. government's official web portal to all federal, state and local government web resources and services.